Home > Time Zones > World Clock > Weather > Italy > Rome > Past weeks

Flag for Italy Weather past 2 weeks in Rome, Italy

Now
72 °F

Scattered clouds.


Feels Like: 77 °F
Forecast: 53 / 72 °F
Wind: 7 mph from Southwest

Location: Rome / Ciampino

Current Time: May 26, 2015 at 2:10:35 PM

Latest Report: May 26, 2015 at 1:15 PM


Visibility: N/A

Pressure: 29.80 "Hg

Humidity: 47%

Dew point: 50 °F

Location of RomeLocation

Historic Weather in Rome — Graph

°F

Rome temperature yesterday

Maximum temperature yesterday: 72 °F (at 12:45 PM)
Minimum temperature yesterday: 52 °F (at 5:15 AM)
Average temperature yesterday: 63 °F

Past Weeks' High & Low Weather Summary

 TemperatureHumidityPressure
High86 °F (May 17, 2:15 PM)94% (May 13, 10:15 PM)30.24 "Hg (May 13, 10:15 PM)
Low48 °F (May 22, 5:45 AM)25% (May 17, 2:15 PM)29.65 "Hg (May 15, 11:45 AM)
Average65 °F65%29.93 "Hg
* Reported May 11 12:15 PM — May 26 12:45 PM, Rome, Weather by CustomWeather, © 2015

Note: Actual official high and low records may vary slightly from our data, if they occured in-between our weather recording intervals... More about our weather records

Advertising

Rome weather history for previous 24 hours

 ConditionsComfort  
Time TempWeatherWind HumidityBarometerVisibility
12:45 PM
Tue, May 26
72 °FScattered clouds.7 mph47%29.80 "HgN/A
12:15 PM70 °FScattered clouds.5 mph50%29.80 "HgN/A
11:45 AM70 °FScattered clouds.5 mph50%29.83 "HgN/A
11:15 AM70 °FScattered clouds.2 mph53%29.83 "HgN/A
10:45 AM68 °FScattered clouds.2 mph56%29.83 "HgN/A
10:15 AM66 °FScattered clouds.5 mph60%29.83 "HgN/A
9:45 AM66 °FScattered clouds.3 mph68%29.83 "HgN/A
9:15 AM66 °FScattered clouds.1 mph68%29.83 "HgN/A
8:45 AM64 °FScattered clouds.1 mph73%29.83 "HgN/A
8:15 AM63 °FPassing clouds.3 mph83%29.83 "HgN/A
7:45 AM61 °FPassing clouds.3 mph83%29.83 "HgN/A
7:15 AM57 °FPassing clouds.No wind88%29.83 "HgN/A
6:45 AM55 °FPassing clouds.2 mph88%29.83 "HgN/A
6:15 AM55 °FPassing clouds.2 mph88%29.83 "HgN/A
5:45 AM57 °FPassing clouds.No wind88%29.83 "HgN/A
5:15 AM57 °FPassing clouds.2 mph94%29.83 "HgN/A
4:45 AM57 °FPassing clouds.No wind94%29.83 "HgN/A
4:15 AM57 °FClear.No wind94%29.86 "Hg10 mi
3:45 AM59 °FPassing clouds.2 mph88%29.86 "HgN/A
3:15 AM59 °FPassing clouds.2 mph88%29.86 "HgN/A
2:45 AM59 °FPassing clouds.3 mph88%29.86 "HgN/A
2:15 AM59 °FPassing clouds.5 mph88%29.86 "HgN/A
1:15 AM59 °FPassing clouds.5 mph88%29.89 "HgN/A
12:45 AM61 °FPassing clouds.2 mph83%29.89 "HgN/A
12:15 AM59 °FPassing clouds.2 mph88%29.89 "HgN/A
11:45 PM
Mon, May 25
59 °FPassing clouds.No wind82%29.89 "HgN/A
11:15 PM61 °FPassing clouds.No wind83%29.89 "HgN/A
10:45 PM61 °FPassing clouds.1 mph83%29.89 "HgN/A
10:15 PM63 °FPassing clouds.2 mph77%29.89 "HgN/A
9:45 PM63 °FPassing clouds.3 mph77%29.89 "HgN/A
9:15 PM64 °FPassing clouds.5 mph68%29.89 "HgN/A
8:45 PM66 °FPassing clouds.3 mph64%29.89 "HgN/A
8:15 PM66 °FPassing clouds.6 mph64%29.89 "HgN/A
7:45 PM68 °FPassing clouds.7 mph60%29.86 "HgN/A
7:15 PM70 °FPassing clouds.6 mph50%29.86 "HgN/A
6:45 PM70 °FPassing clouds.7 mph50%29.86 "HgN/A
6:15 PM72 °FPassing clouds.8 mph47%29.86 "HgN/A
5:45 PM72 °FScattered clouds.9 mph44%29.89 "HgN/A
5:15 PM72 °FScattered clouds.9 mph44%29.89 "HgN/A
4:45 PM72 °FScattered clouds.8 mph44%29.89 "HgN/A
4:15 PM72 °FScattered clouds.8 mph44%29.89 "HgN/A
3:45 PM72 °FScattered clouds.9 mph47%29.89 "HgN/A
3:15 PM72 °FScattered clouds.9 mph44%29.89 "HgN/A
2:45 PM72 °FScattered clouds.9 mph47%29.89 "HgN/A
2:15 PM72 °FScattered clouds.6 mph44%29.89 "HgN/A
Weather by CustomWeather, © 2015

See weather overviewHow to use our weather pages